GW2298 Weather Reports


time (UTC)temp
C
wind
direction
speed
KPH
gust
KPH
rain 1hr
cm
rain 24hr
cm
rain mn
cm
humidity
%
barometer
mb
20260507234618 22 164 11.3 14.5 0.00 0.00 0.00 32 4458.1
20260507234115 21 169 17.7 24.1 0.00 0.00 0.00 31 4458.1
20260507233612 21 151 16.1 22.5 0.00 0.00 0.00 30 4458.1
20260507233110 22 127 11.3 14.5 0.00 0.00 0.00 29 4458.1
20260507232606 22 142 8.0 11.3 0.00 0.00 0.00 29 4457.7
20260507232104 22 171 11.3 16.1 0.00 0.00 0.00 33 4458.1
20260507231600 22 150 8.0 11.3 0.00 0.00 0.00 31 4458.1
20260507231057 21 168 11.3 14.5 0.00 0.00 0.00 29 4458.1
20260507230553 21 137 12.9 16.1 0.00 0.00 0.00 32 4458.1
20260507230050 21 135 11.3 14.5 0.00 0.00 0.00 30 4458.1
20260507225545 22 190 9.7 14.5 0.00 0.00 0.00 30 4458.1
20260507225042 21 142 9.7 11.3 0.00 0.00 0.00 31 4458.1
20260507224537 22 166 17.7 22.5 0.00 0.00 0.00 31 4458.1
20260507224034 22 127 14.5 19.3 0.00 0.00 0.00 31 4458.4
20260507223531 22 194 9.7 11.3 0.00 0.00 0.00 31 4458.1
20260507223028 21 128 11.3 16.1 0.00 0.00 0.00 31 4458.1
20260507222525 21 147 12.9 16.1 0.00 0.00 0.00 31 4458.4
20260507222021 21 176 8.0 11.3 0.00 0.00 0.00 35 4458.4
20260507221518 21 174 8.0 11.3 0.00 0.00 0.00 33 4458.4
20260507221015 22 143 6.4 8.0 0.00 0.00 0.00 31 4458.4
20260507220512 21 181 6.4 8.0 0.00 0.00 0.00 33 4458.7
20260507220009 21 141 8.0 14.5 0.00 0.00 0.00 33 4458.7
20260507215505 20 197 3.2 3.2 0.00 0.00 0.00 33 4458.7
20260507215003 21 157 9.7 11.3 0.00 0.00 0.00 31 4458.4
20260507214500 21 155 8.0 14.5 0.00 0.00 0.00 33 4458.7
20260507213955 21 148 9.7 11.3 0.00 0.00 0.00 33 4458.7
20260507213452 21 141 8.0 14.5 0.00 0.00 0.00 31 4458.7
20260507212949 21 155 11.3 16.1 0.00 0.00 0.00 32 4458.7
20260507212445 21 180 0.0 3.2 0.00 0.00 0.00 32 4458.7
20260507211942 21 165 3.2 4.8 0.00 0.00 0.00 33 4458.7
20260507211438 21 218 4.8 4.8 0.00 0.00 0.00 32 4458.7
20260507210935 21 189 6.4 14.5 0.00 0.00 0.00 34 4458.7
20260507210432 21 151 4.8 8.0 0.00 0.00 0.00 33 4459.2
20260507205929 21 134 8.0 14.5 0.00 0.00 0.00 32 4459.2
20260507205426 21 137 8.0 8.0 0.00 0.00 0.00 34 4459.2
20260507204922 21 144 16.1 16.1 0.00 0.00 0.00 33 4459.2
20260507204418 21 189 8.0 11.3 0.00 0.00 0.00 35 4459.2
20260507203916 21 163 22.5 24.1 0.00 0.00 0.00 32 4459.2
20260507203414 21 138 8.0 11.3 0.00 0.00 0.00 35 4459.2
20260507202910 21 141 14.5 19.3 0.00 0.00 0.00 34 4459.2
20260507202407 21 194 6.4 8.0 0.00 0.00 0.00 35 4459.2
20260507201902 20 185 8.0 11.3 0.00 0.00 0.00 34 4459.2
20260507201358 21 145 14.5 19.3 0.00 0.00 0.00 34 4459.2
20260507200854 21 172 9.7 11.3 0.00 0.00 0.00 32 4459.2
20260507200351 20 174 4.8 8.0 0.00 0.00 0.00 34 4459.2
20260507195847 20 108 11.3 14.5 0.00 0.00 0.00 35 4459.5
20260507195344 20 86 6.4 11.3 0.00 0.00 0.00 37 4459.5
20260507194841 19 151 12.9 22.5 0.00 0.00 0.00 34 4459.5
20260507194338 20 165 9.7 11.3 0.00 0.00 0.00 35 4459.5
20260507193834 20 222 1.6 3.2 0.00 0.00 0.00 35 4459.5
20260507193332 19 200 1.6 4.8 0.00 0.00 0.00 38 4459.5
20260507192827 20 149 8.0 22.5 0.00 0.00 0.00 35 4459.5
20260507192324 20 163 9.7 11.3 0.00 0.00 0.00 38 4459.5
20260507191821 18 153 9.7 14.5 0.00 0.00 0.00 36 4459.5
20260507191317 19 188 6.4 8.0 0.00 0.00 0.00 38 4459.5
20260507190814 19 189 3.2 4.8 0.00 0.00 0.00 38 4459.5
20260507190312 20 182 8.0 11.3 0.00 0.00 0.00 34 4459.5
20260507185811 20 139 8.0 8.0 0.00 0.00 0.00 38 4459.9
20260507185307 20 169 6.4 11.3 0.00 0.00 0.00 39 4459.9
20260507184805 20 150 3.2 4.8 0.00 0.00 0.00 36 4459.5
20260507184303 19 135 9.7 11.3 0.00 0.00 0.00 38 4459.9
20260507183759 19 155 4.8 4.8 0.00 0.00 0.00 39 4459.9
20260507183256 19 159 9.7 11.3 0.00 0.00 0.00 37 4459.9
20260507182754 19 220 4.8 8.0 0.00 0.00 0.00 38 4459.9
20260507182248 19 176 8.0 14.5 0.00 0.00 0.00 37 4459.9
20260507181745 19 217 8.0 11.3 0.00 0.00 0.00 39 4459.5
20260507181242 18 164 4.8 8.0 0.00 0.00 0.00 37 4459.9
20260507180738 18 230 4.8 4.8 0.00 0.00 0.00 39 4459.9
20260507180235 19 177 9.7 14.5 0.00 0.00 0.00 39 4459.9
20260507175731 18 156 1.6 3.2 0.00 0.00 0.00 37 4459.9
20260507175228 18 213 4.8 4.8 0.00 0.00 0.00 39 4460.2
20260507174725 17 174 8.0 11.3 0.00 0.00 0.00 38 4459.9
20260507174223 17 153 9.7 11.3 0.00 0.00 0.00 40 4459.9
20260507173720 18 131 11.3 14.5 0.00 0.00 0.00 38 4460.2
20260507173217 18 186 6.4 14.5 0.00 0.00 0.00 38 4460.2
20260507172714 18 161 9.7 11.3 0.00 0.00 0.00 37 4460.2
20260507172211 18 223 1.6 3.2 0.00 0.00 0.00 37 4460.2
20260507171710 18 147 3.2 3.2 0.00 0.00 0.00 42 4460.2
20260507171208 18 185 4.8 4.8 0.00 0.00 0.00 40 4460.5
20260507170705 18 201 0.0 3.2 0.00 0.00 0.00 40 4460.5
20260507170202 17 224 0.0 3.2 0.00 0.00 0.00 40 4460.5
20260507165658 17 208 4.8 4.8 0.00 0.00 0.00 48 4460.5
20260507165154 16 270 3.2 3.2 0.00 0.00 0.00 43 4460.5
20260507164650 16 176 6.4 11.3 0.00 0.00 0.00 44 4461.0
20260507164147 16 214 3.2 3.2 0.00 0.00 0.00 47 4461.0
20260507163644 16 244 12.9 22.5 0.00 0.00 0.00 44 4460.5
20260507163142 16 205 14.5 22.5 0.00 0.00 0.00 44 4460.5
20260507162638 16 213 6.4 11.3 0.00 0.00 0.00 45 4460.5
20260507162134 16 225 14.5 16.1 0.00 0.00 0.00 46 4460.5
20260507161630 16 221 11.3 11.3 0.00 0.00 0.00 47 4461.0
20260507161127 15 235 8.0 11.3 0.00 0.00 0.00 49 4460.5
20260507160623 15 217 11.3 14.5 0.00 0.00 0.00 47 4461.0
20260507160120 15 210 9.7 11.3 0.00 0.00 0.00 48 4461.0
20260507155615 15 211 8.0 8.0 0.00 0.00 0.00 49 4461.0
20260507155113 15 223 6.4 8.0 0.00 0.00 0.00 48 4460.5
20260507154609 15 236 6.4 8.0 0.00 0.00 0.00 57 4461.0
20260507154107 13 214 3.2 4.8 0.00 0.00 0.00 58 4461.0
20260507153603 13 202 0.0 3.2 0.00 0.00 0.00 63 4461.0
20260507153100 13 184 3.2 4.8 0.00 0.00 0.00 65 4461.0
20260507152556 13 240 0.0 0.0 0.00 0.00 0.00 65 4461.0
20260507152052 13 241 1.6 3.2 0.00 0.00 0.00 63 4461.0
20260507151548 12 240 0.0 0.0 0.00 0.00 0.00 68 4461.0
20260507151045 12 239 1.6 3.2 0.00 0.00 0.00 67 4461.0
20260507150543 12 239 0.0 0.0 0.00 0.00 0.00 71 4461.0
20260507150039 11 291 0.0 0.0 0.00 0.00 0.00 72 4461.0
20260507145534 11 291 0.0 0.0 0.00 0.00 0.00 72 4461.0
20260507145032 11 291 1.6 3.2 0.00 0.00 0.00 71 4461.0
20260507144529 11 291 0.0 3.2 0.00 0.00 0.00 72 4461.0
20260507144026 10 291 0.0 0.0 0.00 0.00 0.00 74 4460.5
20260507143523 10 291 0.0 0.0 0.00 0.00 0.00 74 4461.0
20260507143021 10 291 0.0 0.0 0.00 0.00 0.00 74 4460.5
20260507142515 10 291 0.0 0.0 0.00 0.00 0.00 75 4460.5
20260507142013 10 291 0.0 0.0 0.00 0.00 0.00 77 4460.5
20260507141509 9 291 0.0 0.0 0.00 0.00 0.00 78 4460.5
20260507141007 9 286 3.2 3.2 0.00 0.00 0.00 79 4460.5
20260507140502 9 232 0.0 3.2 0.00 0.00 0.00 81 4460.5
20260507140000 9 232 0.0 0.0 0.00 0.00 0.00 81 4460.2
20260507135456 9 232 0.0 0.0 0.00 0.00 0.00 81 4460.2
20260507134953 8 232 1.6 3.2 0.00 0.00 0.00 81 4460.2
20260507134450 8 231 0.0 0.0 0.00 0.00 0.00 83 4459.9
20260507133946 8 231 3.2 3.2 0.00 0.00 0.00 83 4460.2
20260507133442 8 231 0.0 0.0 0.00 0.00 0.00 82 4459.9
20260507132941 7 231 0.0 0.0 0.00 0.00 0.00 83 4459.9
20260507132437 7 231 1.6 3.2 0.00 0.00 0.00 83 4459.9
20260507131933 6 230 0.0 0.0 0.00 0.00 0.00 86 4459.9
20260507131430 6 230 0.0 0.0 0.00 0.00 0.00 87 4459.9
20260507130927 6 230 4.8 4.8 0.00 0.00 0.00 87 4459.9
20260507130425 6 238 3.2 3.2 0.00 0.00 0.00 87 4459.9
20260507125923 6 231 1.6 3.2 0.00 0.00 0.00 87 4459.9
20260507125421 6 280 0.0 0.0 0.00 0.00 0.00 90 4459.9
20260507124918 6 281 0.0 0.0 0.00 0.00 0.00 90 4459.9
20260507124414 6 281 1.6 3.2 0.00 0.00 0.00 90 4459.5
20260507123913 6 274 3.2 3.2 0.00 0.00 0.00 90 4459.9
20260507123409 6 144 1.6 3.2 0.00 0.00 0.00 91 4459.9
20260507122906 6 211 0.0 0.0 0.00 0.00 0.00 91 4459.5
20260507122401 6 211 0.0 0.0 0.00 0.00 0.00 91 4459.5
20260507121858 6 210 3.2 4.8 0.00 0.00 0.00 90 4459.5
20260507121353 6 224 0.0 0.0 0.00 0.00 0.00 87 4459.5
20260507120850 6 245 1.6 3.2 0.00 0.00 0.00 87 4459.5
20260507120346 6 244 0.0 3.2 0.00 0.00 0.00 87 4459.2
20260507115842 6 253 3.2 4.8 0.00 0.00 0.00 87 4459.5
20260507115338 6 276 3.2 4.8 0.00 0.00 0.00 87 4459.2
20260507114834 6 257 0.0 0.0 0.00 0.00 0.00 86 4459.2
20260507114331 7 286 0.0 0.0 0.00 0.00 0.00 87 4459.2
20260507113829 7 284 4.8 4.8 0.00 0.00 0.00 88 4459.2
20260507113326 6 275 0.0 3.2 0.00 0.00 0.00 88 4459.2
20260507112823 6 226 0.0 3.2 0.00 0.00 0.00 88 4459.5
20260507112320 6 15 3.2 3.2 0.00 0.00 0.00 88 4459.5
20260507111818 6 131 0.0 0.0 0.00 0.00 0.00 88 4459.2
20260507111314 7 135 4.8 4.8 0.00 0.00 0.00 87 4459.2
20260507110810 6 227 0.0 0.0 0.00 0.00 0.00 87 4459.2
20260507110307 6 238 0.0 3.2 0.00 0.00 0.00 87 4459.2
20260507105804 6 270 3.2 4.8 0.00 0.00 0.00 88 4458.7
20260507105300 6 227 0.0 0.0 0.00 0.00 0.00 87 4459.2
20260507104757 7 238 0.0 3.2 0.00 0.00 0.00 85 4458.7
20260507104254 7 238 0.0 0.0 0.00 0.00 0.00 87 4458.7
20260507103750 7 238 0.0 0.0 0.00 0.00 0.00 87 4458.7
20260507103246 7 238 0.0 0.0 0.00 0.00 0.00 87 4458.7
20260507102742 7 238 0.0 0.0 0.00 0.00 0.00 85 4458.7
20260507102234 7 238 0.0 0.0 0.00 0.00 0.00 87 4458.7
20260507101730 7 238 0.0 0.0 0.00 0.00 0.00 86 4458.4
20260507101225 7 238 0.0 0.0 0.00 0.00 0.00 84 4458.4
20260507100722 7 238 0.0 0.0 0.00 0.00 0.00 84 4458.4
20260507100221 7 238 0.0 0.0 0.00 0.00 0.00 84 4458.4
20260507095718 7 249 0.0 0.0 0.00 0.00 0.00 83 4458.4
20260507095215 8 253 0.0 3.2 0.00 0.00 0.00 83 4458.4
20260507094712 8 236 4.8 4.8 0.00 0.00 0.00 83 4458.1
20260507094209 8 236 1.6 3.2 0.00 0.00 0.00 84 4458.1
20260507093705 8 236 0.0 0.0 0.00 0.00 0.00 85 4458.4
20260507093204 8 236 0.0 0.0 0.00 0.00 0.00 84 4458.1
20260507092701 8 236 0.0 0.0 0.00 0.00 0.00 84 4458.1
20260507092157 9 236 0.0 0.0 0.00 0.00 0.00 80 4458.1
20260507091654 9 236 0.0 0.0 0.00 0.00 0.00 78 4458.1
20260507091150 10 236 0.0 0.0 0.00 0.00 0.00 77 4458.1
20260507090646 10 236 1.6 3.2 0.00 0.00 0.00 75 4458.1
20260507090143 10 236 0.0 0.0 0.00 0.00 0.00 74 4458.1
20260507085640 10 236 0.0 0.0 0.00 0.00 0.00 75 4457.7
20260507085137 10 236 0.0 0.0 0.00 0.00 0.00 76 4457.7
20260507084634 10 236 0.0 0.0 0.00 0.00 0.00 75 4458.1
20260507084130 10 236 0.0 0.0 0.00 0.00 0.00 74 4457.7
20260507083627 11 236 0.0 0.0 0.00 0.00 0.00 73 4458.1
20260507083124 11 236 0.0 0.0 0.00 0.00 0.00 72 4458.1
20260507082620 11 236 3.2 3.2 0.00 0.00 0.00 72 4458.1
20260507082116 12 233 0.0 3.2 0.00 0.00 0.00 70 4458.1
20260507081613 12 234 0.0 0.0 0.00 0.00 0.00 68 4458.1
20260507081110 13 256 0.0 0.0 0.00 0.00 0.00 65 4458.1
20260507080606 13 256 0.0 0.0 0.00 0.00 0.00 63 4458.1
20260507075557 15 239 0.0 0.0 0.00 0.00 0.00 60 4458.1
20260507075054 16 223 0.0 3.2 0.00 0.00 0.00 51 4457.7
20260507074551 16 224 1.6 3.2 0.00 0.00 0.00 51 4458.1
20260507074049 16 220 4.8 4.8 0.00 0.00 0.00 50 4458.1
20260507073545 15 213 8.0 11.3 0.00 0.00 0.00 51 4458.1
20260507073042 15 219 6.4 8.0 0.00 0.00 0.00 55 4457.7
20260507072539 15 229 4.8 4.8 0.00 0.00 0.00 57 4457.7
20260507072036 15 234 1.6 4.8 0.00 0.00 0.00 58 4458.1
20260507071534 15 220 8.0 11.3 0.00 0.00 0.00 56 4458.1
20260507071030 15 222 3.2 4.8 0.00 0.00 0.00 55 4458.1
20260507070527 15 225 3.2 3.2 0.00 0.00 0.00 55 4457.7
20260507070024 15 225 3.2 3.2 0.00 0.00 0.00 59 4457.7
20260507065520 15 225 4.8 4.8 0.00 0.00 0.00 58 4457.7
20260507065018 15 225 4.8 4.8 0.00 0.00 0.00 58 4457.7
20260507064516 15 224 4.8 4.8 0.00 0.00 0.00 54 4457.7
20260507064014 16 214 6.4 8.0 0.00 0.00 0.00 52 4457.7
20260507063510 16 214 6.4 8.0 0.00 0.00 0.00 49 4457.7
20260507063008 16 214 4.8 4.8 0.00 0.00 0.00 48 4457.7
20260507062504 16 215 1.6 3.2 0.00 0.00 0.00 49 4457.7
20260507062002 16 216 3.2 4.8 0.00 0.00 0.00 48 4457.7
20260507061459 16 218 3.2 3.2 0.00 0.00 0.00 49 4458.1
20260507060958 16 220 3.2 3.2 0.00 0.00 0.00 50 4458.1
20260507060455 16 226 3.2 3.2 0.00 0.00 0.00 49 4457.7
20260507055951 16 219 0.0 3.2 0.00 0.00 0.00 51 4457.7
20260507055446 16 232 3.2 4.8 0.00 0.00 0.00 51 4457.7
20260507054943 16 245 4.8 4.8 0.00 0.00 0.00 51 4457.7
20260507054439 17 211 0.0 3.2 0.00 0.00 0.00 47 4457.7
20260507053937 17 252 6.4 8.0 0.00 0.00 0.00 47 4457.7
20260507053434 17 206 4.8 8.0 0.00 0.00 0.00 46 4457.7
20260507052932 17 219 8.0 8.0 0.00 0.00 0.00 45 4457.7
20260507052430 17 221 8.0 11.3 0.00 0.00 0.00 44 4457.7
20260507051927 17 181 11.3 16.1 0.00 0.00 0.00 44 4457.7
20260507051424 17 148 4.8 4.8 0.00 0.00 0.00 45 4457.3
20260507050921 17 171 8.0 8.0 0.00 0.00 0.00 44 4457.3
20260507050418 17 179 6.4 8.0 0.00 0.00 0.00 46 4457.7
20260507045915 17 173 4.8 8.0 0.00 0.00 0.00 46 4457.7
20260507045411 16 191 3.2 4.8 0.00 0.00 0.00 47 4457.3
20260507044908 16 198 1.6 3.2 0.00 0.00 0.00 50 4457.3
20260507044405 16 203 3.2 4.8 0.00 0.00 0.00 46 4457.7
20260507043901 16 192 3.2 4.8 0.00 0.00 0.00 48 4457.7
20260507043357 16 217 1.6 3.2 0.00 0.00 0.00 49 4457.3
20260507042854 16 217 1.6 3.2 0.00 0.00 0.00 48 4457.3
20260507042350 16 223 1.6 3.2 0.00 0.00 0.00 50 4457.3
20260507041846 16 223 0.0 0.0 0.00 0.00 0.00 49 4457.3
20260507041343 16 227 4.8 4.8 0.00 0.00 0.00 49 4457.3
20260507040841 16 202 1.6 3.2 0.00 0.00 0.00 52 4457.7
20260507040336 15 224 0.0 0.0 0.00 0.00 0.00 55 4457.0
20260507035833 14 226 3.2 3.2 0.00 0.00 0.00 59 4457.3
20260507035328 13 239 0.0 0.0 0.00 0.00 0.00 74 4457.3
20260507034826 13 258 3.2 4.8 0.00 0.00 0.00 76 4457.3
20260507034323 13 267 1.6 3.2 0.00 0.00 0.00 78 4457.3
20260507033821 14 267 0.0 0.0 0.00 0.00 0.00 78 4457.0
20260507033319 14 266 0.0 0.0 0.00 0.00 0.00 78 4457.3
20260507032815 14 266 1.6 3.2 0.00 0.00 0.00 77 4457.0
20260507032311 13 266 0.0 0.0 0.00 0.00 0.00 78 4457.0
20260507031808 13 267 0.0 3.2 0.00 0.00 0.00 78 4457.3
20260507031305 13 264 0.0 0.0 0.00 0.00 0.00 78 4457.0
20260507030801 13 279 0.0 3.2 0.00 0.00 0.00 78 4457.0
20260507030259 14 203 0.0 0.0 0.00 0.00 0.00 78 4457.0
20260507025756 14 201 1.6 3.2 0.00 0.00 0.00 78 4457.0
20260507025253 15 201 0.0 0.0 0.00 0.00 0.00 78 4457.0
20260507024751 15 202 3.2 3.2 0.00 0.00 0.00 77 4456.6
20260507024248 15 202 0.0 0.0 0.00 0.00 0.00 77 4456.6
20260507023743 15 202 0.0 0.0 0.00 0.00 0.00 76 4457.0
20260507023240 15 202 0.0 0.0 0.00 0.00 0.00 76 4457.0
20260507022738 15 202 0.0 0.0 0.00 0.00 0.00 76 4456.6
20260507022234 15 213 3.2 4.8 0.00 0.00 0.00 74 4456.6
20260507021730 16 246 0.0 3.2 0.00 0.00 0.00 75 4456.6
20260507021226 16 247 0.0 3.2 0.00 0.00 0.00 76 4457.0
20260507020724 16 252 0.0 0.0 0.00 0.00 0.00 74 4456.6
20260507020220 16 252 0.0 0.0 0.00 0.00 0.00 74 4456.6
20260507015718 16 252 0.0 3.2 0.00 0.00 0.00 77 4456.6
20260507015215 16 227 0.0 0.0 0.00 0.00 0.00 76 4456.6
20260507014712 16 227 0.0 0.0 0.00 0.00 0.00 76 4457.0
20260507014208 17 64 0.0 0.0 0.00 0.00 0.00 73 4456.6
20260507013705 17 64 0.0 0.0 0.00 0.00 0.00 70 4456.6
20260507013202 17 64 0.0 0.0 0.00 0.00 0.00 68 4456.6
20260507012700 17 64 0.0 0.0 0.00 0.00 0.00 71 4456.6
20260507012155 17 65 0.0 0.0 0.00 0.00 0.00 71 4457.0
20260507011653 17 105 0.0 3.2 0.00 0.00 0.00 74 4457.0
20260507011149 17 186 0.0 0.0 0.00 0.00 0.00 72 4456.6
20260507010644 17 186 0.0 0.0 0.00 0.00 0.00 71 4457.0
20260507010140 17 186 0.0 0.0 0.00 0.00 0.00 73 4457.0
20260507005638 17 186 0.0 0.0 0.00 0.00 0.00 73 4457.0
20260507005133 17 244 4.8 4.8 0.00 0.00 0.00 71 4457.0
20260507004630 16 275 0.0 0.0 0.00 0.00 0.00 75 4457.0
20260507004128 16 292 0.0 0.0 0.00 0.00 0.00 77 4457.0
20260507003625 16 296 4.8 4.8 0.00 0.00 0.00 76 4457.0
20260507003120 16 263 1.6 3.2 0.00 0.00 0.00 77 4457.0
20260507002616 17 241 0.0 0.0 0.00 0.00 0.00 74 4457.0
20260507002112 17 242 0.0 0.0 0.00 0.00 0.00 69 4457.0
20260507001609 17 242 0.0 0.0 0.00 0.00 0.00 62 4457.0
20260507001106 17 242 0.0 0.0 0.00 0.00 0.00 65 4457.0
20260507000602 17 242 0.0 0.0 0.00 0.00 0.00 64 4457.0
20260507000058 18 241 1.6 3.2 0.00 0.00 0.00 62 4457.0
20260506235555 19 243 0.0 0.0 0.00 0.00 0.00 50 4457.0
20260506235050 19 241 0.0 0.0 0.00 0.00 0.00 49 4457.0